[[{"header":{"parameterUnit":"m.s-1","parameterCategory":1,"la1":30.2991,"la2":30.254,"lo1":-89.0895,"lo2":-89.0444,"dy":0.0017,"dx":0.0017,"nx":28,"ny":28,"refTime":"2024-08-16T21:00:00:Z","depth":0,"parameterNumber":2,"parameterNumberName":"U-component_of_WINDS"},"data":[0,0,0,0,0,0,0,0,0,0,0,0,0,0,0,0,0,0,0,0,0,0,0,0,0,0,0,0,0,0,0,0,0,0,0,0,0,0,0,0,0,0,0,0,0,0,0,0,0,0,0,0,0,0,0,0,0,0,-1.8822,-1.8822,0,-1.8829,-1.883,-1.883,-1.8809,-1.8809,-1.8808,-1.8808,-1.8817,-1.8818,-1.8819,0,0,0,0,0,0,0,0,0,0,0,0,0,-1.8792,-1.8793,-1.8822,-1.8822,-1.8822,-1.8829,-1.883,-1.883,-1.881,-1.8809,-1.8808,-1.8807,-1.8817,-1.8818,-1.8819,0,0,0,0,0,0,0,0,0,0,0,0,0,-1.8803,-1.8793,-1.8822,-1.8813,-1.8812,-1.8829,-1.883,-1.883,-1.881,-1.8809,-1.8808,-1.8807,-1.8817,-1.8818,-1.8819,-1.8846,0,0,-1.8823,-1.8824,0,0,0,0,0,0,0,0,-1.8802,-1.8804,-1.8814,-1.8813,-1.8812,-1.8817,-1.8823,-1.8835,-1.881,-1.8811,-1.8808,-1.8806,-1.8818,-1.8819,-1.8823,-1.8847,-1.8847,-1.8823,-1.8824,-1.8825,-1.8825,0,0,0,0,0,0,0,-1.8802,-1.8804,-1.8825,-1.8814,-1.8813,-1.8809,-1.881,-1.8825,-1.882,-1.881,-1.8809,-1.881,-1.8818,-1.8822,-1.8823,-1.8847,-1.8823,-1.8824,-1.8825,-1.8826,-1.8895,-1.8896,0,0,0,0,0,0,-1.8802,-1.8803,-1.8824,-1.8825,-1.8805,-1.8811,-1.8811,-1.8817,-1.882,-1.8819,-1.8811,-1.8809,-1.882,-1.8822,-1.8823,-1.8855,-1.8825,-1.8826,-1.8826,-1.8894,-1.8896,-1.8897,0,0,0,0,0,0,-1.8801,-1.8804,-1.8824,-1.8814,-1.8816,-1.8812,-1.8819,-1.8818,-1.8821,-1.882,-1.8819,-1.8816,-1.8819,-1.8822,-1.8841,-1.8856,-1.8826,-1.8827,-1.8893,-1.8895,-1.8896,-1.892,0,0,0,0,0,0,-1.88,-1.8804,-1.8813,-1.8814,-1.8817,-1.8841,-1.882,-1.8818,-1.8824,-1.8821,-1.8824,-1.8824,-1.8819,-1.8839,-1.8842,-1.8857,-1.8828,-1.8892,-1.8894,-1.8896,-1.8918,-1.8922,-1.8926,0,0,0,0,0,-1.8799,-1.8819,-1.8814,-1.8816,-1.8828,-1.8841,-1.8843,-1.8836,-1.8825,-1.8835,-1.8834,-1.8824,-1.8854,-1.8841,-1.8845,-1.886,-1.8891,-1.8893,-1.8896,-1.8916,-1.8921,-1.8926,0,0,0,0,0,0,-1.882,-1.8819,-1.8813,-1.8833,-1.8838,-1.8838,-1.885,-1.8842,-1.885,-1.8847,-1.884,-1.8841,-1.8862,-1.8863,-1.8849,-1.8887,-1.887,-1.8874,-1.8885,-1.889,-1.8894,-1.8892,-1.883,0,0,0,0,0,-1.8827,-1.8837,-1.8837,-1.8855,-1.8858,-1.8854,-1.8859,-1.8854,-1.8858,-1.886,-1.8861,-1.8866,-1.8877,-1.8884,-1.8893,-1.8919,-1.8919,-1.8931,-1.8935,-1.8938,-1.8941,-1.8955,-1.8961,-1.8905,-1.8905,-1.8905,0,0,-1.8842,-1.8843,-1.8849,-1.8859,-1.8862,-1.8873,-1.8855,-1.8868,-1.8877,-1.8862,-1.888,-1.8881,-1.8887,-1.8909,-1.8919,-1.8911,-1.8957,-1.8942,-1.8944,-1.8945,-1.8958,-1.8964,-1.8968,-1.8906,-1.8906,-1.8906,0,0,-1.8874,-1.8875,-1.8891,-1.8894,-1.8899,-1.8896,-1.8901,-1.8903,-1.8902,-1.8921,-1.891,-1.8922,-1.894,-1.8945,-1.8949,-1.8986,-1.8977,-1.899,-1.901,-1.9025,-1.9029,-1.9033,-1.9046,-1.9051,-1.8993,-1.8993,-1.8993,0,-1.8891,-1.8907,-1.89,-1.8914,-1.8919,-1.8907,-1.8924,-1.8928,-1.8935,-1.8939,-1.893,-1.8954,-1.8957,-1.8981,-1.899,-1.8995,-1.9,-1.8988,-1.9029,-1.9033,-1.9036,-1.9048,-1.9053,-1.8994,-1.8994,-1.8994,-1.8994,0,-1.8928,-1.894,-1.8953,-1.896,-1.8967,-1.8982,-1.8979,-1.8987,-1.8982,-1.8981,-1.9001,-1.9004,-1.9015,-1.9021,-1.9016,-1.9045,-1.9039,-1.903,-1.9013,-1.9043,-1.9054,-1.9059,-1.8996,-1.8996,-1.8995,-1.8995,0,0,-1.8971,-1.8976,-1.8981,-1.8984,-1.899,-1.8999,-1.9015,-1.9025,-1.9032,-1.9039,-1.9052,-1.9069,-1.9061,-1.9067,-1.9063,-1.9075,-1.9105,-1.9064,-1.9064,-1.9071,-1.9137,-1.9144,-1.9149,-1.91,-1.9101,-1.9101,-1.9137,0,-1.9002,-1.9028,-1.9023,-1.9049,-1.906,-1.905,-1.9064,-1.9069,-1.907,-1.908,-1.9081,-1.9094,-1.9081,-1.9085,-1.9097,-1.9098,-1.9118,-1.9096,-1.9112,-1.9113,-1.911,-1.9155,-1.9162,-1.9194,-1.9141,-1.9142,-1.9143,0,-1.9041,-1.9049,-1.9075,-1.908,-1.9085,-1.9097,-1.9107,-1.9117,-1.9124,-1.9124,-1.9131,-1.9125,-1.9143,-1.9127,-1.9151,-1.9136,-1.9143,-1.9145,-1.9147,-1.9147,-1.9128,-1.9156,-1.9205,-1.9209,-1.915,-1.9149,-1.9149,0,-1.9069,-1.9087,-1.9105,-1.9109,-1.9115,-1.9124,-1.9127,-1.9133,-1.914,-1.9149,-1.9154,-1.9165,-1.9172,-1.9181,-1.918,-1.9168,-1.9205,-1.9189,-1.9205,-1.9205,-1.9212,-1.9211,-1.9262,-1.9218,-1.9218,-1.9218,-1.9218,0,-1.9104,-1.912,-1.9118,-1.9129,-1.9148,-1.9144,-1.9163,-1.9165,-1.9171,-1.9183,-1.9176,-1.9188,-1.9185,-1.9198,-1.9197,-1.9218,-1.9221,-1.9221,-1.9221,-1.9221,-1.9221,-1.9225,-1.9222,-1.9219,-1.9219,-1.9219,-1.9219,0,-1.9137,-1.9136,-1.9155,-1.916,-1.9162,-1.9175,-1.918,-1.9191,-1.9192,-1.9208,-1.9211,-1.9213,-1.9227,-1.9227,-1.9244,-1.9244,-1.9268,-1.9266,-1.9266,-1.9265,-1.9281,-1.9279,-1.9335,-1.9342,-1.9295,-1.9295,-1.9296,0,-1.9159,-1.9171,-1.9177,-1.9185,-1.9189,-1.9201,-1.9208,-1.9206,-1.9214,-1.9224,-1.9234,-1.9248,-1.9258,-1.9282,-1.9286,-1.9299,-1.9296,-1.9315,-1.9298,-1.9298,-1.9296,-1.9295,-1.9296,-1.9317,-1.9318,-1.9318,-1.9319,0,-1.9197,-1.9196,-1.9206,-1.9217,-1.9226,-1.9235,-1.9242,-1.9249,-1.9248,-1.9258,-1.9272,-1.9281,-1.9298,-1.9312,-1.9326,-1.933,-1.9325,-1.9324,-1.9329,-1.9329,-1.9328,-1.9328,-1.9274,-1.9323,-1.9322,-1.9322,-1.9322,-1.9322,-1.9225,-1.9236,-1.9242,-1.9254,-1.926,-1.9268,-1.9279,-1.9282,-1.9293,-1.9307,-1.9305,-1.9322,-1.933,-1.9347,-1.9353,-1.9367,-1.9361,-1.9367,-1.9369,-1.937,-1.9372,-1.9327,-1.937,-1.9369,-1.9369,-1.9369,-1.9369,0,-1.9262,-1.9266,-1.9278,-1.9289,-1.9299,-1.9293,-1.9302,-1.9311,-1.9325,-1.9334,-1.9345,-1.9362,-1.9377,-1.9382,-1.9396,-1.9406,-1.9404,-1.941,-1.9409,-1.941,-1.9377,-1.9371,-1.9411,-1.9411,-1.9411,-1.9411,-1.9411,-1.9411,-1.9283,-1.9301,-1.9302,-1.9324,-1.9328,-1.9343,-1.9349,-1.9357,-1.9363,-1.9383,-1.9395,-1.9398,-1.9406,-1.9421,-1.9434,-1.9435,-1.9441,-1.9448,-1.9448,-1.9416,-1.9412,-1.9408,-1.9403,-1.9449,-1.9449,-1.948,-1.948,-1.9481]},{"header":{"parameterUnit":"m.s-1","parameterCategory":1,"la1":30.2991,"la2":30.254,"lo1":-89.0895,"lo2":-89.0444,"dy":0.0017,"dx":0.0017,"nx":28,"ny":28,"refTime":"2024-08-16T21:00:00:Z","depth":0,"parameterNumber":3,"parameterNumberName":"V-component_of_WINDS"},"data":[0,0,0,0,0,0,0,0,0,0,0,0,0,0,0,0,0,0,0,0,0,0,0,0,0,0,0,0,0,0,0,0,0,0,0,0,0,0,0,0,0,0,0,0,0,0,0,0,0,0,0,0,0,0,0,0,0,0,4.0973,4.0974,0,4.1038,4.1039,4.104,4.1107,4.1108,4.1109,4.111,4.1173,4.1173,4.1174,0,0,0,0,0,0,0,0,0,0,0,0,0,4.0903,4.0904,4.0973,4.0974,4.0975,4.1038,4.1039,4.104,4.1107,4.1108,4.1109,4.111,4.1172,4.1173,4.1174,0,0,0,0,0,0,0,0,0,0,0,0,0,4.0947,4.0904,4.0973,4.1016,4.102,4.1038,4.1039,4.104,4.1107,4.1108,4.111,4.1111,4.1172,4.1173,4.1174,4.1153,0,0,4.1178,4.1178,0,0,0,0,0,0,0,0,4.0945,4.095,4.1009,4.1013,4.1018,4.1066,4.1037,4.1078,4.1107,4.1074,4.111,4.1112,4.1136,4.114,4.1149,4.1156,4.1159,4.1178,4.1179,4.1179,4.118,0,0,0,0,0,0,0,4.0941,4.0947,4.0999,4.101,4.1015,4.1031,4.1039,4.1045,4.1096,4.1077,4.1082,4.1089,4.1139,4.1148,4.1151,4.116,4.1178,4.1179,4.118,4.118,4.1154,4.1153,0,0,0,0,0,0,4.0932,4.0944,4.0997,4.1001,4.0984,4.1031,4.104,4.1049,4.1096,4.1105,4.1088,4.1092,4.1145,4.115,4.1153,4.1133,4.1179,4.118,4.1181,4.1155,4.1154,4.1152,0,0,0,0,0,0,4.0931,4.0936,4.0994,4.0974,4.0983,4.1031,4.1041,4.105,4.1059,4.1104,4.1113,4.1088,4.1146,4.1152,4.1153,4.1136,4.1181,4.1182,4.1157,4.1155,4.1153,4.109,0,0,0,0,0,0,4.0928,4.0935,4.0929,4.0973,4.0983,4.0994,4.104,4.105,4.1062,4.1068,4.1107,4.1115,4.1148,4.1151,4.1154,4.1138,4.1183,4.1159,4.1156,4.1153,4.1094,4.1086,4.1079,0,0,0,0,0,4.0926,4.0907,4.0928,4.0934,4.0976,4.0993,4.0998,4.1038,4.106,4.1053,4.1082,4.1114,4.1137,4.1151,4.1155,4.1139,4.116,4.1157,4.1154,4.1097,4.1087,4.1079,0,0,0,0,0,0,4.0858,4.0914,4.0938,4.0933,4.0958,4.1004,4.0997,4.1026,4.1044,4.1048,4.1095,4.1104,4.11,4.1119,4.1134,4.1121,4.1153,4.115,4.1108,4.11,4.1093,4.1088,4.1184,0,0,0,0,0,4.0842,4.0852,4.0901,4.0892,4.0903,4.0948,4.0956,4.0985,4.1011,4.1022,4.1051,4.1074,4.1087,4.1095,4.1109,4.1097,4.1107,4.1088,4.1081,4.1074,4.1071,4.1067,4.1059,4.1142,4.1142,4.1142,0,0,4.081,4.0843,4.0846,4.0879,4.0902,4.091,4.0956,4.0962,4.0969,4.1022,4.1026,4.1048,4.1078,4.1073,4.1072,4.1089,4.1051,4.107,4.1065,4.1066,4.1063,4.1055,4.1048,4.1139,4.114,4.114,0,0,4.0757,4.0782,4.0778,4.08,4.0834,4.0864,4.0863,4.0905,4.0922,4.0927,4.0968,4.0975,4.0996,4.1016,4.1028,4.0983,4.1012,4.0986,4.0948,4.0943,4.0936,4.0931,4.0914,4.0908,4.0983,4.0983,4.0983,0,4.0713,4.0728,4.0772,4.0777,4.079,4.0841,4.0837,4.0855,4.0891,4.0899,4.0918,4.0946,4.0969,4.097,4.0959,4.0967,4.0967,4.0981,4.0934,4.0929,4.0924,4.0909,4.0903,4.0979,4.098,4.098,4.098,0,4.0672,4.0682,4.0674,4.071,4.0722,4.0722,4.0766,4.0773,4.08,4.0828,4.0832,4.0862,4.0883,4.0886,4.0912,4.089,4.0899,4.0925,4.0958,4.0912,4.0899,4.0893,4.0975,4.0976,4.0977,4.0978,0,0,4.0576,4.0637,4.0634,4.0651,4.0692,4.07,4.0702,4.0725,4.073,4.0753,4.0756,4.0773,4.0798,4.0812,4.0841,4.0836,4.0799,4.0863,4.0864,4.085,4.0776,4.0756,4.0749,4.0819,4.0818,4.0817,4.0774,0,4.053,4.0539,4.0579,4.0575,4.0585,4.0633,4.0635,4.066,4.0686,4.0697,4.0725,4.0736,4.0768,4.0777,4.0775,4.0804,4.0784,4.0807,4.0821,4.0821,4.0812,4.0742,4.0721,4.0679,4.0769,4.0768,4.0767,0,4.0477,4.0499,4.0496,4.0538,4.0544,4.0545,4.0569,4.0579,4.0608,4.0627,4.0644,4.0676,4.0681,4.0712,4.0718,4.0733,4.074,4.0755,4.0755,4.0757,4.0791,4.0743,4.0666,4.066,4.076,4.076,4.0761,0,4.0408,4.0436,4.0439,4.0451,4.05,4.05,4.052,4.0551,4.0562,4.0583,4.059,4.0611,4.0621,4.0636,4.0673,4.0692,4.0675,4.0709,4.069,4.0689,4.0684,4.0684,4.0607,4.0689,4.0689,4.0689,4.0689,0,4.0352,4.0348,4.0408,4.041,4.0407,4.0453,4.0449,4.0474,4.0501,4.0507,4.0549,4.0554,4.0603,4.0613,4.0642,4.0643,4.0647,4.0662,4.067,4.0658,4.0656,4.0664,4.0668,4.0687,4.0688,4.0688,4.0688,0,4.0274,4.0314,4.032,4.0367,4.0378,4.0374,4.0413,4.0416,4.0445,4.0452,4.0457,4.0501,4.0515,4.0554,4.0577,4.0597,4.0589,4.0604,4.058,4.0585,4.0564,4.0565,4.049,4.0482,4.0568,4.0567,4.0566,0,4.0235,4.0234,4.0281,4.0289,4.0308,4.032,4.0332,4.0377,4.0388,4.0421,4.042,4.0438,4.0454,4.0474,4.0508,4.0526,4.0542,4.0514,4.0544,4.0533,4.0541,4.0541,4.0541,4.0507,4.0506,4.0505,4.0504,0,4.0163,4.0183,4.02,4.0223,4.0237,4.0257,4.028,4.0283,4.0334,4.0343,4.0359,4.0372,4.0397,4.0414,4.0438,4.0458,4.0489,4.0494,4.0491,4.0479,4.0465,4.0473,4.0561,4.0496,4.0496,4.0497,4.0498,4.0498,4.0104,4.0105,4.0139,4.0156,4.0178,4.0198,4.0203,4.0233,4.0248,4.0273,4.0298,4.0311,4.034,4.0376,4.0393,4.0403,4.042,4.0414,4.0413,4.0411,4.0406,4.0464,4.0407,4.0408,4.0408,4.0408,4.0408,0,4.0034,4.0058,4.0073,4.0104,4.0117,4.0147,4.0174,4.0183,4.0194,4.022,4.0236,4.0254,4.0271,4.0306,4.0326,4.0327,4.0342,4.0331,4.0331,4.0335,4.039,4.0391,4.0318,4.0318,4.0318,4.0318,4.0318,4.0319,3.9999,4.0003,4.0027,4.0042,4.0066,4.0081,4.0093,4.0112,4.0133,4.0152,4.0166,4.019,4.0219,4.0242,4.0258,4.0268,4.0273,4.0257,4.0272,4.0322,4.0331,4.0339,4.034,4.0258,4.0258,4.0216,4.0215,4.0215]}]]